Location: Sungai Kamana Besar
(2.6333°N, 113.4333°E)
Time: 06:18:08
(UTC+00:00)

NOSS 2-1 (C) - Pass Details

Date: 29 May 2022
Orbit: 413 x 1779 km, 63.3° (Epoch: 24 June)

Event Time Altitude Azimuth Distance (km) Brightness Sun altitude
Rises 11:59:45 0° 211° (SSW) 3,633 7.6 -21.1°
Reaches altitude 10° 12:02:45 10° 215° (SW) 2,452 6.7 -21.8°
Maximum altitude 12:08:03 53° 291° (WNW) 801 4.4 -23.0°
Drops below altitude 10° 12:11:54 10° 8° (N) 1,788 6.1 -23.9°
Sets 12:13:49 0° 14° (NNE) 2,561 6.9 -24.3°
